Starlink 4078

operational
NORAD ID: 52689 Int'l Des: 2022-053 Owner: SPXS Country: US Constellation: starlink
LEOCIRCULAR

About Starlink 4078

Description loading...

Live Position

Loading 3D Globe...

Upcoming Passes

Altitude History

Altitude vs Time

uPlot chart will show altitude changes over time

Two-Line Element Set

1 52689U 22053AK 25353.50962694 .00029929 00000-0 67450-3 0 9997
2 52689 53.2147 105.7025 0000699 293.3800 66.7134 15.43037284199590
Epoch: Dec 19, 2025 • Age: 17 hours

Current Status

Altitude 455.1 km
Velocity 7.64 km/s
Sub-Earth Point -53.13°S, 157.92°W
Launch Date May 18, 2022
Age 3.5 years
Type internet

Technical Details

Classification Payload
Mass 297.00 kg
Dry Mass 275.00 kg
Total Mass 297.00 kg
Length 0.20 m
Diameter 2.80 m
Span 9.00 m
Shape Box + pan
Manufacturer SPXS
Bus Type Starlink
Phase Status In Orbit
Owner/State SPXS/US

Large Constellations

Loading constellations...